When you browse on this site, cookies collect data to enhance your experience and personalize the content and advertising you see.
Visit our Privacy Policy to learn more. By continuing to use the site, you agree to this use of cookies and data.

Meteo pe oră la Dzhuryn

Astăzi, 19 Septembrie, Sâmbătă

Timp Temperatura Precipitaţii Vânt Presiune Umiditate
00:00 +7°C° 0 mm 3 m/s 746 mmHg 75%
01:00 +7°C° 0 mm 3 m/s 746 mmHg 77%
02:00 +6°C° 0 mm 4 m/s 746 mmHg 78%
03:00 +5°C° 0 mm 3 m/s 746 mmHg 81%
04:00 +5°C° 0 mm 3 m/s 746 mmHg 84%
05:00 +5°C° 0 mm 3 m/s 746 mmHg 88%
06:00 +8°C° 0 mm 3 m/s 746 mmHg 81%
07:00 +9°C° 0 mm 3 m/s 747 mmHg 74%
08:00 +11°C° 0 mm 3 m/s 747 mmHg 67%
09:00 +13°C° 0 mm 3 m/s 747 mmHg 57%
10:00 +16°C° 0 mm 3 m/s 747 mmHg 48%
11:00 +18°C° 0 mm 3 m/s 746 mmHg 38%
12:00 +19°C° 0 mm 3 m/s 746 mmHg 36%
13:00 +20°C° 0 mm 3 m/s 746 mmHg 33%
14:00 +21°C° 0 mm 2 m/s 745 mmHg 31%
15:00 +20°C° 0 mm 2 m/s 745 mmHg 33%
16:00 +20°C° 0 mm 2 m/s 745 mmHg 35%
17:00 +20°C° 0 mm 2 m/s 745 mmHg 37%
18:00 +18°C° 0 mm 2 m/s 745 mmHg 44%
19:00 +16°C° 0 mm 2 m/s 744 mmHg 50%
20:00 +14°C° 0 mm 2 m/s 744 mmHg 57%
21:00 +13°C° 0 mm 2 m/s 744 mmHg 60%
22:00 +13°C° 0 mm 2 m/s 745 mmHg 64%
23:00 +12°C° 0 mm 2 m/s 745 mmHg 68%

Mâine, 20 Septembrie, Duminică

Timp Temperatura Precipitaţii Vânt Presiune Umiditate
00:00 +12°C° 0 mm 2 m/s 745 mmHg 70%
01:00 +10°C° 0 mm 2 m/s 745 mmHg 72%
02:00 +10°C° 0 mm 2 m/s 745 mmHg 75%
03:00 +9°C° 0 mm 2 m/s 745 mmHg 74%
04:00 +9°C° 0 mm 2 m/s 745 mmHg 73%
05:00 +8°C° 0 mm 2 m/s 745 mmHg 71%
06:00 +10°C° 0 mm 2 m/s 745 mmHg 64%
07:00 +12°C° 0 mm 2 m/s 745 mmHg 56%
08:00 +14°C° 0 mm 2 m/s 745 mmHg 48%
09:00 +16°C° 0 mm 2 m/s 745 mmHg 44%
10:00 +18°C° 0 mm 2 m/s 745 mmHg 40%
11:00 +20°C° 0 mm 2 m/s 746 mmHg 36%
12:00 +21°C° 0 mm 2 m/s 745 mmHg 35%
13:00 +23°C° 0 mm 2 m/s 745 mmHg 34%
14:00 +23°C° 0 mm 2 m/s 745 mmHg 33%
15:00 +23°C° 0 mm 2 m/s 745 mmHg 35%
16:00 +23°C° 0 mm 2 m/s 744 mmHg 37%
17:00 +21°C° 0 mm 2 m/s 744 mmHg 39%
18:00 +19°C° 0 mm 2 m/s 744 mmHg 42%
19:00 +17°C° 0 mm 3 m/s 745 mmHg 45%
20:00 +14°C° 0 mm 3 m/s 745 mmHg 48%
21:00 +14°C° 0 mm 3 m/s 745 mmHg 47%
22:00 +13°C° 0 mm 3 m/s 745 mmHg 46%
23:00 +12°C° 0 mm 3 m/s 745 mmHg 45%

Poimâine, 21 Septembrie, Luni

Timp Temperatura Precipitaţii Vânt Presiune Umiditate
00:00 +12°C° 0 mm 3 m/s 745 mmHg 45%
01:00 +11°C° 0 mm 3 m/s 745 mmHg 46%
02:00 +11°C° 0 mm 3 m/s 745 mmHg 47%
03:00 +11°C° 0 mm 3 m/s 745 mmHg 50%
04:00 +10°C° 0 mm 3 m/s 745 mmHg 54%
05:00 +10°C° 0 mm 3 m/s 745 mmHg 57%
06:00 +11°C° 0 mm 3 m/s 745 mmHg 54%
07:00 +13°C° 0 mm 3 m/s 745 mmHg 51%
08:00 +14°C° 0 mm 3 m/s 745 mmHg 48%
09:00 +17°C° 0 mm 3 m/s 745 mmHg 43%
10:00 +20°C° 0 mm 3 m/s 745 mmHg 38%
11:00 +23°C° 0 mm 2 m/s 745 mmHg 33%
12:00 +24°C° 0 mm 2 m/s 745 mmHg 31%
13:00 +25°C° 0 mm 2 m/s 745 mmHg 29%
14:00 +25°C° 0 mm 2 m/s 744 mmHg 27%
15:00 +25°C° 0 mm 2 m/s 744 mmHg 29%
16:00 +24°C° 0 mm 2 m/s 744 mmHg 30%
17:00 +24°C° 0 mm 2 m/s 744 mmHg 32%
18:00 +21°C° 0 mm 2 m/s 744 mmHg 35%
19:00 +19°C° 0 mm 2 m/s 744 mmHg 38%
20:00 +16°C° 0 mm 3 m/s 744 mmHg 42%
21:00 +16°C° 0 mm 3 m/s 744 mmHg 42%
22:00 +14°C° 0 mm 3 m/s 744 mmHg 42%
23:00 +13°C° 0 mm 3 m/s 744 mmHg 42%

22 Septembrie, Marţi

Timp Temperatura Precipitaţii Vânt Presiune Umiditate
00:00 +13°C° 0 mm 3 m/s 744 mmHg 43%
01:00 +13°C° 0 mm 3 m/s 744 mmHg 44%
02:00 +13°C° 0 mm 2 m/s 744 mmHg 46%
03:00 +13°C° 0 mm 2 m/s 744 mmHg 50%
04:00 +12°C° 0 mm 2 m/s 744 mmHg 54%
05:00 +12°C° 0 mm 2 m/s 744 mmHg 59%
06:00 +14°C° 0 mm 2 m/s 744 mmHg 54%
07:00 +15°C° 0 mm 2 m/s 744 mmHg 50%
08:00 +17°C° 0 mm 3 m/s 744 mmHg 46%
09:00 +19°C° 0 mm 3 m/s 744 mmHg 38%
10:00 +21°C° 0 mm 4 m/s 744 mmHg 31%
11:00 +25°C° 0 mm 4 m/s 745 mmHg 24%
12:00 +25°C° 0 mm 4 m/s 744 mmHg 23%
13:00 +26°C° 0 mm 4 m/s 744 mmHg 21%
14:00 +27°C° 0 mm 4 m/s 743 mmHg 19%
15:00 +26°C° 0 mm 4 m/s 743 mmHg 21%
16:00 +25°C° 0 mm 3 m/s 743 mmHg 22%
17:00 +24°C° 0 mm 2 m/s 742 mmHg 24%
18:00 +21°C° 0 mm 3 m/s 742 mmHg 26%
19:00 +19°C° 0 mm 3 m/s 742 mmHg 28%
20:00 +17°C° 0 mm 3 m/s 742 mmHg 31%
21:00 +16°C° 0 mm 3 m/s 742 mmHg 31%
22:00 +16°C° 0 mm 3 m/s 742 mmHg 32%
23:00 +14°C° 0 mm 4 m/s 742 mmHg 33%

23 Septembrie, Miercuri

Timp Temperatura Precipitaţii Vânt Presiune Umiditate
00:00 +13°C° 0 mm 3 m/s 742 mmHg 37%
01:00 +13°C° 0 mm 3 m/s 742 mmHg 41%
02:00 +12°C° 0 mm 3 m/s 741 mmHg 45%
03:00 +12°C° 0 mm 3 m/s 741 mmHg 44%
04:00 +11°C° 0 mm 3 m/s 741 mmHg 44%
05:00 +10°C° 0 mm 3 m/s 741 mmHg 43%
06:00 +12°C° 0 mm 4 m/s 741 mmHg 40%
07:00 +14°C° 0 mm 4 m/s 741 mmHg 38%
08:00 +15°C° 0 mm 4 m/s 741 mmHg 35%
09:00 +17°C° 0 mm 5 m/s 741 mmHg 32%
10:00 +21°C° 0 mm 5 m/s 741 mmHg 29%
11:00 +23°C° 0 mm 6 m/s 740 mmHg 26%
12:00 +25°C° 0 mm 5 m/s 740 mmHg 24%
13:00 +25°C° 0 mm 5 m/s 739 mmHg 22%
14:00 +26°C° 0 mm 5 m/s 739 mmHg 20%
15:00 +26°C° 0 mm 4 m/s 738 mmHg 22%
16:00 +25°C° 0 mm 4 m/s 738 mmHg 25%
17:00 +24°C° 0 mm 3 m/s 737 mmHg 28%
18:00 +21°C° 0 mm 3 m/s 738 mmHg 33%
19:00 +19°C° 0 mm 3 m/s 738 mmHg 39%
20:00 +18°C° 0 mm 3 m/s 738 mmHg 45%
21:00 +17°C° 0 mm 3 m/s 738 mmHg 50%
22:00 +16°C° 0 mm 3 m/s 738 mmHg 55%
23:00 +16°C° 0 mm 3 m/s 737 mmHg 60%

24 Septembrie, Joi

Timp Temperatura Precipitaţii Vânt Presiune Umiditate
00:00 +14°C° 0 mm 3 m/s 737 mmHg 65%
01:00 +14°C° 0 mm 3 m/s 737 mmHg 70%
02:00 +13°C° 0 mm 3 m/s 737 mmHg 74%
03:00 +13°C° 0 mm 3 m/s 737 mmHg 80%
04:00 +12°C° 0 mm 3 m/s 737 mmHg 85%
05:00 +12°C° 0 mm 3 m/s 737 mmHg 90%
06:00 +13°C° 0 mm 3 m/s 737 mmHg 86%
07:00 +15°C° 0 mm 4 m/s 737 mmHg 82%
08:00 +17°C° 0 mm 4 m/s 737 mmHg 78%
09:00 +20°C° 0 mm 4 m/s 737 mmHg 67%
10:00 +22°C° 0 mm 5 m/s 737 mmHg 57%
11:00 +25°C° 0 mm 5 m/s 737 mmHg 46%
12:00 +26°C° 0 mm 5 m/s 737 mmHg 42%
13:00 +27°C° 0 mm 4 m/s 737 mmHg 39%
14:00 +27°C° 0 mm 4 m/s 737 mmHg 35%
15:00 +27°C° 0 mm 3 m/s 736 mmHg 37%
16:00 +26°C° 0 mm 2 m/s 736 mmHg 38%
17:00 +25°C° 0 mm 2 m/s 736 mmHg 40%
18:00 +24°C° 0 mm 2 m/s 736 mmHg 43%
19:00 +21°C° 0 mm 2 m/s 736 mmHg 46%
20:00 +20°C° 0 mm 2 m/s 736 mmHg 49%
21:00 +20°C° 0 mm 2 m/s 736 mmHg 50%
22:00 +19°C° 0 mm 2 m/s 736 mmHg 50%
23:00 +19°C° 0 mm 2 m/s 736 mmHg 51%
Arată mai mult